CZ-6A DEB, 56636

Orbit data source: Space-Track

CZ-6A DEB, 56636 is space debris in SSO originally from a launch on Fri, 11 Nov 2022 UTC launched from the Taiyaun Space Center, China (TSC). Debris objects in space refer to the collection of defunct objects orbiting the Earth. Examples of debris include non-operational satellites, rocket bodies, and fragments generated from explosions, collisions, or faulty payload assembly.

Loading next visibility...
Identifier
56636, 2022-151AFL
Orbit
SSO
Country
Flag of CNCN / PRC
Related business
Manufacturer
SAST
Mission
Spacecraft
Bus & Motor
Unknown
Mass
Unknown
Launch date (UTC)
2022-11-11 (3 years ago)
Launch vehicle
Unknown
Launch site
Taiyaun Space Center, China (TSC)
Object type
Payload
Rocket body
Debris
Shape & HBR
Unknown shape, 0.1 m
Radar Cross Section
Small (<0.1 m²)

Expand to show TLE details & history
Last TLE update: 2 days ago

TLE from 2 days ago
0 CZ-6A DEB
1 56636U 22151AFL 25348.42765654  .00002074  00000-0  11281-2 0  9996
2 56636  98.8267 343.2001 0074198 174.6334 185.5650 14.11958885140823
Epoch: 2025-12-14T10:15Z
TLE epoch observation values (Epoch: 2025-12-14T10:15:49.525Z)
Latitude
0.00004°
Longitude
105.90302°
Altitude
908.989 km
Speed
7.37 km/s
True Right ascension
22h 52m 48s
True Declination
0° 00' 00"
Sunlit
Object was in daylight at epoch
Visualization orbit readout
Latitude
Unknown
Longitude
Unknown
Altitude
Unknown
Speed
Unknown
Apparent Right ascension
Unknown
Apparent Declination
Unknown
Sunlit
N/A
Visualization observer readout
Local Sidereal Time
13:38:56
Azimuth
Unknown
Elevation
Unknown
Doppler factor
Unknown
Orbital elements
Apogee altitude
903.481 km
Perigee altitude
796.221 km
Semi-major axis
7,227.988 km
Eccentricity
0.00742
Inclination
98.8267°
RAAN
343.2001°
Arg. of periapsis
174.6334°
True anomaly
185.4833°
Mean anomaly
185.565°
Eccentric anomaly
185.52408°
Mean motion
3.53197 °/min
Orbital period
101.93 mins
BSTAR
0.0011281
Loading maneuver chart data...
Computing Atmospheric mass density...
Loading historical data...
Loading historical data...
Loading historical data...
Loading historical data...
Loading historical data...
Loading historical data...
Loading historical data...

Documentation

Showing up to 5 results
|